Regional Weather Roundup
Issued by NWS

Home | Current Version | Previous Version | Text Only | Print | Product List | Glossary Off
Versions: 1 2 3 4 5 6 7 8 9 10 11 12 13 14 15 16 17 18 19 20 21 22 23 24 25 26 27 28 29 30 31 32 33 34 35 36 37 38 39 40 41 42 43 44 45 46 47 48 49 50

132
ASUS44 KJAN 220710
RWRMS

MISSISSIPPI HOURLY WEATHER ROUNDUP
NATIONAL WEATHER SERVICE JACKSON MS
200 AM CDT TUE JUL 22 2014

NOTE: "FAIR: INDICATES FEW OR NO CLOUDS BELOW 12,000 FEET WITH NO
SIGNIFICANT WEATHER AND/OR OBSTRUCTIONS TO VISIBILITY.

MSZ001>002-007>008-010>013-018>021-025>028-034>036-220800-
NORTHWEST MISSISSIPPI

CITY           SKY/WX    TMP DP  RH WIND       PRES   REMARKS
CLARKSDALE     FAIR      68  68 100 CALM      30.06S
CLEVELAND      FAIR      69  69 100 NW3       30.05R
GREENWOOD      CLEAR     70  68  93 CALM      30.04S FOG
GREENVILLE     CLEAR     70  69  97 N3        30.04S
GRENADA        FAIR      68  66  94 CALM      30.05S
OLIVE BRANCH   CLEAR     70  70 100 CALM      30.07R
OXFORD         FAIR      68  66  94 CALM      30.07S FOG
TUNICA         SUNNY     70  68  94 CALM      30.07R
$$

MSZ003>006-009-014>017-022>024-029>033-037>039-220800-
NORTHEAST MISSISSIPPI

CITY           SKY/WX    TMP DP  RH WIND       PRES   REMARKS
BELMONT        CLOUDY    71  70  98 CALM      30.06S FOG
COLUMBUS AFB   PTCLDY    73  72  99 N1        30.04S
CORINTH        FOG       70  68  94 CALM      30.05S VSB 3/4
GOLDN TRIANGLE CLOUDY    72  68  88 N6        30.04S
STARKVILLE     FAIR      70  68  94 CALM      30.03F
TUPELO         CLEAR     73  69  87 CALM      30.04F
$$

MSZ040-058-220800-
CENTRAL MISSISSIPPI

CITY           SKY/WX    TMP DP  RH WIND       PRES   REMARKS
JACKSON INTL   CLEAR     75  70  84 NE5       30.02F
JACKSON HAWKNS CLEAR     75  69  81 CALM      30.03F
MERIDIAN KEY   PTCLDY    72  69  90 CALM      30.02S
MERIDIAN NAS   PTCLDY    72  70  93 NW3       30.02F
RAYMOND        HAZE      70  64  83 CALM      30.03S VSB 1/2
VICKSBURG      CLEAR     72  69  90 NE3       30.03S
$$

MSZ059>079-220800-
SOUTH MISSISSIPPI

CITY           SKY/WX    TMP DP  RH WIND       PRES   REMARKS
BROOKHAVEN     FAIR      70  70 100 CALM      30.04F FOG
COLUMBIA       PTSUNNY   70  70 100 CALM      30.00F FOG
HATTIESBURG    PTCLDY    75  72  90 CALM      30.01S
MCCOMB         CLEAR     71  68  90 CALM      30.02F
NATCHEZ        PTCLDY    70  68  94 CALM      30.04R
PINE BELT      CLEAR     73  70  88 CALM      30.02F
$$

MSZ080>082-220800-
COASTAL MISSISSIPPI

CITY           SKY/WX    TMP DP  RH WIND       PRES   REMARKS
BILOXI         CLEAR     76  72  86 VRB3      29.99F
PASCAGOULA     PTCLDY    74  73  97 CALM      29.98F
GULFPORT       CLEAR     76  71  85 N3        29.99F
$$



USA.gov is the U.S. government's official web portal to all federal, state and local government web resources and services.